#timestamp,LO_Frequency,Hit,StdDev 
1577502015.7,286047002.1,P
1577502035.6,286047002.5,P
1577502055.4,286047001.0,P
1577502075.2,286047000.6,N
1577502095.1,286047001.0,N
1577502096.0,286047001.0,N
1577502115.8,286047000.4,N
1577502135.7,286047000.1,N
1577502155.5,286046999.9,N
1577502175.3,286047001.0,N
1577502195.2,286047000.3,N
1577502215.9,286047000.0,N
1577502235.7,286047000.5,N
1577502255.6,286046999.9,N
1577502275.4,286047000.6,N
1577502295.2,286046999.9,N
1577502315.1,286046998.6,N
1577502316.0,286046998.6,N
1577502335.8,286046998.2,N
1577502355.7,286047000.7,N
1577502375.5,286047000.6,N
1577502395.3,286047000.2,N
1577502415.2,286047002.8,N
1577502435.0,286047000.3,N
1577502435.9,286047000.3,N
1577502455.8,286046998.9,N
1577502475.6,286046998.6,N
1577502495.4,286046999.3,N
1577502515.3,286047001.0,N
1577502535.1,286047001.1,N
1577502536.0,286047001.1,N
1577502555.8,286047000.2,N
1577502575.7,286047000.9,N
1577502595.5,286047002.8,N
1577502615.4,286047000.2,N
1577502635.2,286047002.2,N
1577502655.0,286047002.2,N
1577502655.9,286047002.2,N
1577502675.8,286047002.8,N
1577502695.6,286047000.0,N
1577502715.4,286047000.0,N
1577502735.3,286047000.6,N
1577502755.1,286047000.3,N
1577502775.9,286047000.7,N
1577502795.7,286046998.3,N
1577502815.5,286046998.7,N
1577502835.4,286047000.0,N
1577502855.2,286047001.1,N
1577502875.0,286047000.8,N
1577502875.9,286047000.8,N
1577502895.8,286046998.4,N
1577502915.6,286046998.6,N
1577502935.5,286046998.2,N
1577502955.3,286047001.2,N
1577502975.1,286047001.1,N
1577502995.9,286046998.6,N
1577503015.7,286047000.8,N
1577503035.5,286046998.5,N
1577503055.4,286047000.7,N
1577503075.2,286046998.4,N
1577503095.0,286047000.7,N
1577503096.0,286047000.7,N
1577503115.8,286047002.3,N
1577503135.6,286047000.9,N
1577503155.5,286047001.0,N
1577503175.3,286047001.1,N
1577503195.1,286046998.4,N
1577503215.9,286046998.4,N
1577503235.7,286046998.9,N
1577503255.6,286046999.1,N
1577503275.4,286046999.4,N
1577503295.2,286046998.4,N
1577503315.1,286046998.5,N
1577503316.0,286046998.5,N
1577503335.8,286046998.2,N
1577503355.6,286046998.3,N
1577503375.5,286046999.4,N
1577503395.3,286046999.3,N
1577503415.2,286046998.7,N
1577503435.9,286046999.0,N
1577503455.7,286046998.7,N
1577503475.6,286046999.2,N
1577503495.4,286046999.2,N
1577503515.2,286046999.4,N
1577503535.1,286046998.9,N
1577503536.0,286046998.9,N
1577503555.8,286047001.2,N
1577503575.7,286046998.4,N
1577503595.5,286046998.9,N
1577503615.3,286046998.7,N
1577503635.2,286046998.5,N
1577503655.9,286046998.6,N
1577503675.7,286046998.5,N
1577503695.6,286046998.4,N
1577503715.4,286046999.9,N
1577503735.2,286047001.3,N
1577503755.1,286047002.3,Y
1577503756.0,286047002.3,P
1577503775.8,286047000.1,N
1577503795.7,286046999.7,N
1577503815.5,286047002.8,N
1577503835.3,286047000.0,N
1577503855.2,286047001.0,N
1577503875.0,286047000.6,N
1577503875.9,286047000.6,N
1577503895.8,286047000.3,N
1577503915.6,286047002.7,N
1577503935.4,286046999.7,N
1577503955.3,286047002.6,N
1577503975.1,286046999.7,N
1577503995.8,286047000.0,N
1577504015.7,286047000.9,N
1577504035.5,286047000.7,N
1577504055.4,286047000.4,N
1577504075.2,286047000.9,N
1577504095.0,286047000.7,N
1577504095.9,286047000.7,N
1577504115.8,286047002.6,N
1577504135.6,286046999.7,N
1577504155.4,286046999.7,N
1577504175.3,286047000.4,N
1577504195.1,286047002.8,N
1577504215.9,286047000.7,N
1577504235.7,286046999.8,N
1577504255.5,286047000.2,N
1577504275.4,286047000.6,N
1577504295.2,286047002.7,N
1577504315.0,286047003.9,Y
1577504315.9,286047003.9,P
1577504335.8,286047003.4,N
1577504355.6,286047002.9,N
1577504375.5,286047006.9,Y
1577504395.3,286047001.7,P
1577504415.1,286047001.5,N
1577504435.9,286047001.7,P
1577504455.7,286047004.3,Y
1577504475.6,286047000.9,P
1577504495.4,286047001.0,N
1577504515.2,286047001.1,N
1577504535.1,286047000.3,N
1577504536.0,286047000.3,N
1577504555.8,286046998.1,Y
1577504575.6,286046999.1,P
1577504595.5,286046996.8,P
1577504615.3,286046996.8,N
1577504635.2,286046997.4,N
1577504655.9,286046999.3,N
1577504675.7,286046996.9,N
1577504695.6,286046999.2,N
1577504715.4,286046996.5,N
1577504735.2,286046997.1,N
1577504755.1,286046999.2,N
1577504756.0,286046999.2,N
1577504775.8,286046999.1,N
1577504795.7,286047002.6,N
1577504815.5,286047000.9,N
1577504835.3,286046998.3,N
1577504855.2,286046999.2,N
1577504875.9,286046998.7,N
1577504895.7,286046998.6,N
1577504915.6,286046999.2,N
1577504935.4,286046997.0,N
1577504955.2,286046996.1,N
1577504975.1,286046995.8,N
1577504976.0,286046995.8,N
1577504995.8,286046997.9,N
1577505015.7,286046995.3,N
1577505035.5,286046995.3,N
1577505055.3,286046995.4,N
1577505075.2,286046996.8,N
1577505095.0,286046995.0,N
1577505095.9,286046995.0,N
1577505115.8,286046995.4,N
1577505135.6,286046997.0,N
1577505155.4,286046997.6,N
1577505175.3,286046995.4,N
1577505195.1,286046995.8,N
1577505196.0,286046995.8,N
1577505215.8,286046995.9,N
1577505235.7,286046995.0,N
1577505255.5,286046997.5,N
1577505275.3,286046995.3,N
1577505295.2,286046996.2,N
1577505315.0,286046993.5,Y
1577505315.9,286046993.5,P
1577505335.8,286046996.8,N
1577505355.6,286046996.8,N
1577505375.4,286046999.0,N
1577505395.3,286046996.7,N
1577505415.1,286046997.4,N
1577505435.9,286046997.1,N
1577505455.7,286046999.4,N
1577505475.5,286046998.9,N
1577505495.4,286046996.8,N
1577505515.2,286046996.9,N
1577505535.0,286046997.2,N
1577505535.9,286046997.2,N
1577505555.8,286046997.7,N
1577505575.6,286046999.0,N
1577505595.5,286046996.7,N
